This demonstration page uses our WeatherBlox Daily Observations layout. Learn more.

Left ArrowRight Arrow

Hourly Observations for January 15, 2016

Temp ( °F °C ) Dew Point ( °F °C ) Humidity (%) Winds ( mph kmh ) Pressure ( in mb ) Visibility ( mi km ) Precip ( " mm )
12:54 am 00:54 Mostly Cloudy 37 2.8 31 -0.6 79 79 WNW 12 19 29.58 1002 10 16 0.00 0.00
1:05 am 01:05 Cloudy 37 2.8 31 -0.6 79 79 WNW 13 20 29.62 1003 10 16 0.00 0.00
1:12 am 01:12 Cloudy 37 3 30 -1 75 75 WNW 12 19 29.62 1003 10 16 0.00 0.00
1:54 am 01:54 Cloudy 37 2.8 31 -0.6 79 79 NW 22 35 29.59 1002 10 16 0.00 0.00
2:20 am 02:20 Cloudy 36 2 30 -1 81 81 NNW 24 39 29.62 1003 7 11 0.00 0.00
2:54 am 02:54 Cloudy 34 1.1 27 -2.8 76 76 NNW 23 37 29.63 1003 10 16 0.00 0.00
3:05 am 03:05 Cloudy 33 0.6 25 -3.9 72 72 NNW 23 37 29.65 1004 10 16 0.00 0.00
3:49 am 03:49 Cloudy 30 -1 23 -5 75 75 NNW 22 35 29.71 1006 7 11 0.00 0.00
3:54 am 03:54 Cloudy 30 -1.1 23 -5 75 75 NNW 23 37 29.66 1004 7 11 0.00 0.00
4:54 am 04:54 Cloudy 28 -2.2 20 -6.7 72 72 NNW 20 31 29.68 1005 7 11 0.00 0.00
5:01 am 05:01 Cloudy 28 -2.2 20 -6.7 72 72 NNW 21 33 29.74 1007 7 11 0.00 0.00
5:45 am 05:45 Mostly Cloudy 27 -3 19 -7 74 74 NNW 20 31 29.74 1007 8 13 0.00 0.00
5:54 am 05:54 Mostly Cloudy 26 -3.3 19 -7.2 75 75 NNW 16 26 29.72 1006 8 13 0.00 0.00
6:54 am 06:54 Mostly Cloudy 25 -3.9 18 -7.8 75 75 NNW 21 33 29.75 1007 9 14 0.00 0.00
7:54 am 07:54 Cloudy 24 -4.4 18 -7.8 77 77 NNW 16 26 29.78 1009 10 16 0.00 0.00
8:54 am 08:54 Cloudy 24 -4.4 16 -8.9 71 71 N 16 26 29.80 1009 10 16 0.00 0.00
9:33 am 09:33 Cloudy 24 -4.4 17 -8.3 75 75 NNW 15 24 29.85 1011 10 16 0.00 0.00
9:54 am 09:54 Cloudy 25 -3.9 17 -8.3 72 72 NNW 14 22 29.84 1010 10 16 0.00 0.00
10:50 am 10:50 Cloudy 27 -3 18 -8 69 69 NNW 18 30 29.88 1012 10 16 0.00 0.00
10:54 am 10:54 Cloudy 26 -3.3 18 -7.8 71 71 NNW 16 26 29.85 1011 10 16 0.00 0.00
11:06 am 11:06 Cloudy 26 -3.3 18 -7.8 71 71 NNW 17 28 29.88 1012 10 16 0.00 0.00
11:54 am 11:54 Cloudy 26 -3.3 18 -7.8 71 71 NNW 16 26 29.85 1011 10 16 0.00 0.00
12:54 pm 12:54 Cloudy 27 -2.8 18 -7.8 69 69 NNW 17 28 29.85 1011 10 16 0.00 0.00
1:14 pm 13:14 Cloudy 27 -3 18 -8 69 69 NNW 20 31 29.88 1012 10 16 0.00 0.00
1:54 pm 13:54 Cloudy 27 -2.8 18 -7.8 69 69 NW 16 26 29.85 1011 10 16 0.00 0.00
2:54 pm 14:54 Mostly Cloudy 28 -2.2 18 -7.8 66 66 NNW 14 22 29.85 1011 10 16 0.00 0.00
3:06 pm 15:06 Partly Cloudy 29 -1.7 18 -7.8 63 63 NNW 15 24 29.88 1012 10 16 0.00 0.00
3:54 pm 15:54 Mostly Sunny 28 -2.2 16 -8.9 60 60 NNW 13 20 29.89 1012 10 16 0.00 0.00
4:54 pm 16:54 Sunny 27 -2.8 12 -11.1 53 53 N 13 20 29.91 1013 10 16 0.00 0.00
5:54 pm 17:54 Clear 20 -6.7 13 -10.6 74 74 N 5 7 29.94 1014 10 16 0.00 0.00
6:54 pm 18:54 Clear 22 -5.6 14 -10 71 71 N 5 7 29.97 1015 10 16 0.00 0.00
7:54 pm 19:54 Clear 20 -6.7 11 -11.7 68 68 NNW 6 9 30.00 1016 10 16 0.00 0.00
8:54 pm 20:54 Clear 17 -8.3 10 -12.2 74 74 N 5 7 30.02 1017 10 16 0.00 0.00
9:54 pm 21:54 Mostly Cloudy 18 -7.8 10 -12.2 71 71 Calm 30.03 1017 10 16 0.00 0.00
10:54 pm 22:54 Cloudy 20 -6.7 12 -11.1 71 71 N 9 15 30.03 1017 10 16 0.00 0.00
11:54 pm 23:54 Partly Cloudy 18 -7.8 9 -12.8 68 68 N 10 17 30.04 1017 10 16 0.00 0.00

Powered by AerisWeather